Vorticity
5 2 4 9 10 5 6 6 -1 5 10 1 -0 9 15 10 1 1 1 2 4 6 2 -1 0 -8 -7 3 2 5 6 1 2 2 7 8 10 22 19 12 10 5 7 8 7 9 7 5 4 3 4 2 3 3 3 5 5 6 5 3 6 7 7 8 8 8 9 10 10 7 5 3 6 9 8 8 6 5 3 1 4 7 8 7 5 7
5 3 7 11 12 7 3 7 4 2 8 6 -2 -3 5 7 0 3 5 -1 -0 5 5 1 -0 -5 0 8 5 6 2 2 7 3 7 9 12 24 20 12 10 4 5 7 6 6 4 4 3 3 4 2 3 3 4 5 5 8 7 0 2 5 6 8 8 8 8 9 10 9 7 4 5 8 8 9 8 7 7 7 8 8 7 7 7 9
6 8 15 13 8 4 3 9 8 2 3 7 7 -0 -3 3 2 -2 1 1 1 3 2 2 1 -2 6 15 7 -3 -5 5 10 4 5 9 18 32 22 10 9 5 4 6 6 4 3 4 3 2 2 2 3 3 4 5 4 8 9 6 4 3 3 7 8 8 7 7 9 10 9 6 5 7 8 9 10 10 10 8 8 8 9 10 11 14
4 10 17 11 5 4 3 7 8 4 0 2 17 16 -3 1 7 -3 -3 1 1 2 1 2 2 0 8 12 0 -7 -1 10 10 3 3 5 15 30 25 11 6 6 6 7 6 4 3 3 3 3 4 4 3 3 5 5 5 8 9 9 8 5 3 3 5 9 8 7 9 10 11 9 8 9 9 10 10 9 8 7 8 9 9 11 15 18
5 9 12 7 6 9 5 4 4 6 5 -1 14 22 1 -4 4 -0 1 2 1 6 5 3 2 3 7 3 -2 3 7 9 7 4 4 2 8 22 29 17 2 7 12 7 4 3 3 4 3 5 5 4 2 3 6 4 5 9 9 8 8 9 8 3 5 10 11 8 7 9 11 9 9 10 10 10 9 6 7 8 9 9 10 14 17 15
9 9 8 4 6 10 11 10 5 7 11 1 8 20 2 -9 1 4 4 4 6 11 8 3 2 5 5 1 3 10 10 6 5 7 6 -1 1 13 28 23 8 13 17 8 5 2 2 5 4 6 5 2 1 2 4 3 4 7 8 10 11 11 9 8 10 11 11 8 4 7 10 9 9 9 10 9 6 7 9 9 9 10 13 16 14 10
9 5 4 5 5 5 10 15 10 6 8 7 13 19 4 -5 3 3 -0 0 6 12 9 3 2 2 -0 -0 4 5 5 4 0 4 5 -4 -6 1 15 23 17 17 16 9 6 3 3 5 5 7 4 0 2 2 2 3 4 4 4 7 11 11 9 9 10 9 9 6 5 9 9 8 8 9 10 7 6 9 10 9 10 12 15 14 11 7
6 4 4 6 6 3 7 19 21 9 2 12 23 15 2 2 2 0 2 3 3 6 5 4 2 -2 -3 -3 -3 -8 -7 1 4 2 1 -1 -5 -7 5 20 18 16 14 9 5 3 4 5 6 10 5 1 2 2 2 3 4 5 4 5 7 8 6 7 9 7 6 6 8 11 9 8 9 9 8 6 8 11 10 10 11 13 14 11 8 7
3 5 5 5 6 5 10 20 20 6 -1 14 21 6 -0 5 1 -3 1 2 1 1 3 7 5 1 2 2 5 3 -7 0 13 6 -4 1 1 -5 2 16 18 15 14 9 4 3 4 3 7 11 7 3 2 1 2 3 4 6 6 6 4 3 5 6 8 8 7 7 9 12 10 8 9 9 7 6 9 11 11 12 13 13 12 8 7 6
2 4 4 4 6 8 14 17 11 5 6 15 15 3 -2 2 1 -3 -3 0 -0 -3 0 3 3 4 5 5 10 6 -6 6 23 10 -3 4 6 -1 1 9 15 15 14 11 7 4 4 3 5 8 7 3 -0 1 2 2 5 8 9 11 7 3 5 7 7 8 8 6 6 10 10 8 9 9 6 7 10 11 11 13 14 13 10 7 6 7
5 5 4 5 8 9 11 12 10 10 12 15 16 10 -1 -4 1 -1 -4 1 -1 -3 0 -1 -1 3 1 1 3 1 8 25 21 -0 -3 7 7 4 3 4 8 11 13 13 9 6 3 3 4 4 4 -0 -2 -0 1 2 4 6 9 14 14 9 7 7 7 7 8 5 3 9 11 8 9 9 6 8 11 12 13 14 14 12 8 7 7 7
8 8 8 8 8 8 7 8 10 12 12 14 18 17 7 4 8 3 -2 1 -1 -1 3 1 2 5 3 2 -1 2 19 23 4 -7 2 9 10 9 4 4 8 12 15 15 13 9 3 3 3 3 3 0 -1 -1 1 4 -1 -0 11 15 12 11 6 5 7 7 8 7 4 8 11 9 9 8 7 10 12 12 13 14 13 10 7 7 7 6
10 10 11 11 9 9 8 8 8 11 14 17 21 21 14 11 10 3 -3 -4 -4 -3 -2 -3 -1 3 3 1 0 5 9 4 -1 6 11 10 12 10 1 4 9 9 12 15 15 12 7 4 1 2 5 3 3 -0 0 7 6 7 13 8 6 9 6 5 7 8 11 10 7 8 10 9 9 8 7 10 12 12 13 14 13 9 6 7 6 5
17 14 12 12 13 13 13 15 18 19 18 17 18 17 14 12 11 10 6 1 1 2 1 -0 -1 -2 -2 -1 11 20 13 6 5 7 12 13 11 7 3 6 7 5 7 11 13 13 11 8 2 3 5 4 11 11 2 5 18 23 10 -2 4 10 6 7 7 7 11 10 8 8 9 10 9 7 8 10 12 12 12 14 12 8 6 6 6 4
19 16 13 13 12 13 17 19 17 15 13 11 12 10 12 16 18 20 21 18 17 15 9 7 3 2 3 6 15 21 14 6 0 1 11 12 4 4 5 4 3 4 6 7 12 16 15 13 8 5 5 4 15 22 7 -6 4 17 12 7 12 10 6 9 7 5 8 8 9 9 9 11 9 7 8 10 12 12 12 15 11 7 7 6 5 4
20 18 15 11 10 15 22 19 12 12 9 7 10 13 15 18 15 15 17 18 22 24 20 16 13 14 20 21 25 29 20 3 -1 9 15 7 1 3 3 2 3 6 6 4 7 13 17 19 15 9 7 6 10 13 5 -6 -7 4 12 15 16 12 9 9 5 6 8 8 10 9 9 11 8 7 9 11 13 12 13 15 11 7 7 5 4 4
17 16 13 17 23 23 20 15 13 15 10 4 7 12 13 14 11 9 8 7 11 18 23 26 25 24 24 24 25 26 18 6 12 21 13 5 5 3 0 1 4 10 7 -1 2 9 13 17 18 15 9 4 7 10 8 6 2 5 12 14 13 12 12 9 3 3 8 10 10 10 10 10 8 7 10 12 12 12 14 15 10 7 7 5 4 5
15 13 16 27 30 18 9 9 9 8 6 6 4 4 6 4 4 5 3 5 8 13 21 23 23 23 18 15 13 9 6 7 14 12 2 2 5 1 1 -2 1 8 2 -4 4 8 9 13 15 17 13 6 9 12 8 2 -0 7 15 15 13 12 14 13 4 0 8 12 11 11 10 8 7 8 10 12 11 11 14 13 9 7 6 5 5 6
15 18 24 27 19 6 5 9 8 4 6 7 -1 1 8 1 -2 -1 -3 3 8 12 18 17 18 23 14 5 3 1 1 0 0 1 2 5 4 3 3 -1 0 5 1 3 7 4 9 16 14 11 9 7 8 7 5 2 3 12 15 11 11 11 10 10 6 4 9 12 11 12 9 7 7 8 10 12 11 11 13 12 9 7 6 5 5 6
16 17 16 14 7 1 6 10 8 8 17 18 4 6 17 10 4 6 4 8 10 9 12 13 16 16 9 8 8 3 3 0 -0 7 8 9 9 6 4 2 5 9 7 7 3 -0 8 16 18 14 5 3 6 6 9 10 7 9 9 7 10 9 4 4 7 8 10 11 12 11 8 7 8 8 11 12 12 12 13 12 8 6 5 5 6 7
14 5 0 9 7 1 10 13 3 2 11 13 1 2 9 4 1 9 11 9 5 4 6 13 20 15 7 14 13 0 1 2 3 8 7 6 7 3 2 6 8 10 7 1 -2 1 8 12 17 19 12 7 7 7 12 12 6 5 10 12 10 7 4 4 6 8 9 11 12 10 8 8 8 9 11 12 12 12 13 11 8 5 5 6 7 8
17 4 -2 6 7 4 12 11 -3 -6 -2 -5 -6 1 4 -0 -3 3 10 7 -1 0 4 9 20 19 9 12 9 -0 2 4 6 8 3 1 2 2 4 5 4 6 4 -1 0 4 9 11 11 15 17 9 7 11 13 13 9 5 8 9 6 5 6 5 7 9 10 12 12 10 9 7 8 10 11 11 11 12 13 11 7 5 6 7 8 9
13 6 5 5 7 6 8 7 -2 -0 7 -1 -5 1 4 5 3 1 8 8 0 3 7 6 12 14 8 5 4 3 4 5 8 10 6 4 3 1 1 1 4 8 6 2 4 6 8 10 10 17 15 2 6 14 8 12 15 3 -1 6 7 8 7 7 9 10 10 12 12 11 9 7 9 11 11 11 11 12 13 10 6 5 6 7 8 9
2 -0 6 5 10 8 1 2 -2 -2 11 6 -5 -0 5 7 8 5 6 5 -1 -1 2 5 10 12 8 3 1 2 4 5 3 2 2 1 -1 -2 1 6 9 10 7 5 6 7 8 8 11 18 11 0 10 10 -2 7 11 -6 -6 7 10 9 8 9 11 10 11 13 11 10 9 7 9 11 12 11 11 12 12 9 6 5 6 7 8 8
7 -0 8 6 9 10 0 1 0 -1 9 6 -5 0 6 4 5 10 12 8 4 3 3 7 9 9 9 7 4 3 6 13 14 9 5 3 3 7 10 10 10 8 6 6 8 9 10 10 11 14 8 2 4 -3 -8 1 -0 -8 3 13 9 8 9 9 11 10 12 12 11 11 8 6 9 12 13 11 10 12 11 8 6 6 6 7 7 7
12 6 17 12 7 11 5 2 3 3 7 6 -1 -2 2 5 5 8 12 10 7 5 2 3 4 5 7 5 8 14 11 10 15 18 19 19 17 16 11 8 8 6 3 3 8 10 9 9 10 10 8 4 1 -1 -0 1 -2 3 14 13 7 7 8 10 11 11 12 12 10 10 8 7 10 13 13 11 10 11 10 7 5 5 7 7 7 7
11 9 20 14 7 11 9 4 6 5 5 5 2 -1 -1 4 3 -1 0 2 2 -1 -3 1 4 5 2 -6 -1 15 14 1 -1 5 13 17 14 9 9 10 8 6 4 5 9 11 9 9 10 9 7 5 5 6 5 3 5 11 15 11 7 7 7 10 12 12 12 11 10 10 8 7 10 13 13 10 10 10 9 7 5 5 7 7 7 7
4 4 11 9 7 11 10 7 7 7 9 8 5 4 1 3 3 -3 -4 -1 2 2 1 3 2 0 0 -9 -14 2 14 6 -2 -0 5 8 6 4 7 11 11 10 10 10 12 14 13 10 7 7 8 7 4 3 3 5 9 13 14 11 6 4 8 12 12 12 11 10 11 11 8 8 11 14 13 9 9 10 8 7 6 5 6 7 7 6
3 2 6 2 1 6 7 9 10 9 12 11 8 7 4 4 6 2 -2 -0 5 7 3 -0 -2 -2 0 -4 -11 -1 16 13 2 1 6 5 2 2 6 13 16 15 13 13 14 16 15 10 5 6 9 5 -1 -0 3 7 10 15 16 10 4 4 9 12 12 12 10 10 12 11 8 8 11 14 13 10 9 10 10 8 6 5 5 6 7 6
4 1 4 -1 -2 4 3 4 8 9 11 14 13 11 7 5 7 7 4 1 1 1 -2 -5 -3 -4 -5 -3 -5 -3 11 17 10 5 4 2 4 9 15 18 18 17 16 15 16 16 12 7 6 6 7 4 -1 -1 3 8 14 17 15 8 4 5 9 12 12 10 9 11 13 11 8 8 11 14 14 12 10 10 10 9 7 5 5 6 7 7
7 1 4 9 16 26 26 18 12 7 6 9 12 13 11 7 5 5 5 4 1 0 1 -0 -1 -2 -1 -0 -2 -3 4 11 9 6 7 10 15 19 20 20 19 20 19 16 15 14 10 7 7 6 7 7 3 -1 3 12 17 16 12 7 5 6 11 13 11 9 10 12 12 10 8 7 10 13 14 13 11 10 10 9 8 6 6 6 7 7
-1 -5 2 10 8 12 24 30 27 20 12 9 10 13 16 16 14 10 6 4 -0 -3 -1 -1 -1 1 -1 -5 -3 0 2 5 11 17 19 19 20 20 20 21 20 19 17 14 13 11 9 9 9 8 8 8 3 2 9 17 17 14 10 7 5 8 12 12 9 9 10 13 13 9 7 8 10 12 14 14 12 10 10 9 8 7 7 7 6 6
2 3 13 10 -9 -12 1 10 18 26 25 17 11 10 11 13 15 16 15 16 15 11 9 8 5 4 2 2 6 7 5 13 23 23 18 16 18 19 20 21 18 14 12 11 10 9 9 10 9 7 7 6 7 11 16 17 14 11 8 6 7 11 13 10 9 10 12 13 12 8 6 8 9 11 15 16 13 11 10 9 8 8 7 6 7 7
4 7 12 2 -10 -5 2 -2 2 14 21 20 14 9 7 6 5 7 9 12 16 18 19 20 20 20 20 20 18 14 15 21 19 12 12 15 15 14 16 18 16 14 13 12 12 13 13 12 12 13 14 14 14 15 14 12 11 9 6 7 10 12 12 9 9 12 13 12 9 6 7 8 9 11 15 17 14 11 10 9 8 8 7 7 8 7
-5 -2 1 -3 -5 -0 0 1 6 11 14 16 14 12 12 11 11 11 10 11 13 14 15 18 19 21 22 20 19 22 24 19 12 12 14 11 7 8 12 13 12 11 10 10 10 9 4 1 5 13 18 17 14 11 10 10 8 8 8 10 12 12 10 8 11 14 13 10 7 6 8 8 9 12 14 16 16 12 10 10 9 9 9 8 8 9
1 1 1 -0 1 0 -1 3 7 8 12 12 11 13 16 16 17 17 15 15 15 16 17 18 17 16 15 15 19 24 21 13 12 14 9 2 3 7 7 6 8 7 6 5 5 3 0 0 4 10 13 14 12 10 9 8 8 9 11 12 12 11 9 10 14 14 10 8 7 6 8 9 9 10 13 16 16 13 11 11 10 10 10 10 10 10
2 1 1 -0 -0 -2 -3 3 7 11 15 12 7 10 13 15 17 18 16 14 12 14 17 16 15 15 12 10 14 16 12 8 8 8 5 5 6 5 4 5 6 4 3 5 7 11 19 22 17 12 11 12 12 10 8 7 10 12 12 12 12 8 9 15 17 13 8 7 7 7 7 9 9 10 13 15 15 14 12 11 11 10 11 11 11 11
3 2 -0 -2 -1 -4 -7 2 14 16 12 8 7 9 11 13 15 15 15 15 15 17 17 14 11 10 7 7 8 8 6 5 7 8 8 8 7 6 6 6 5 5 9 8 3 4 18 27 21 12 10 9 7 7 9 10 11 12 12 12 11 8 11 17 15 10 7 7 7 8 8 8 9 10 12 15 15 14 12 10 10 10 11 12 11 10
1 2 0 -3 -3 -4 -2 10 22 19 10 6 6 8 12 12 9 6 8 10 11 11 9 7 6 7 7 8 6 2 2 6 10 9 6 7 9 9 9 6 4 7 16 20 12 5 11 19 19 14 9 8 9 9 11 11 10 11 12 10 9 11 15 17 12 8 8 7 6 8 9 9 10 10 12 16 17 15 13 11 11 12 12 12 12 11
3 3 5 1 -3 -1 8 19 22 15 9 7 5 6 10 10 7 8 10 11 10 8 4 3 4 8 12 12 8 4 5 8 10 7 4 5 6 6 7 6 4 6 12 18 23 29 28 18 12 11 8 8 12 11 9 11 10 11 12 9 10 14 16 15 11 8 7 6 7 9 9 9 11 12 13 16 16 15 14 13 13 14 13 12 12 11
4 3 2 -3 -2 9 18 21 18 11 9 11 11 10 9 9 10 12 12 12 13 13 12 11 10 10 10 10 9 8 8 9 10 5 0 0 3 6 6 7 9 10 10 10 15 27 30 17 5 7 9 9 12 11 10 12 11 10 10 9 10 14 15 13 10 7 6 7 8 9 9 10 11 12 14 15 14 13 14 14 14 14 12 11 11 11
-4 -2 -3 -4 7 21 22 19 17 12 9 9 9 8 6 7 11 13 12 12 14 15 16 15 11 7 4 5 7 7 5 7 6 1 -3 -0 7 11 10 13 17 14 17 26 23 13 17 20 12 7 10 10 10 11 11 11 10 9 9 9 10 14 14 11 9 7 7 8 9 9 10 10 11 13 14 14 13 13 13 13 12 12 11 11 11 11
-1 -2 -3 2 15 21 17 15 15 11 8 9 11 12 11 8 7 6 5 6 5 4 6 7 6 6 6 8 9 8 6 5 3 2 3 6 9 12 13 18 20 12 16 33 29 8 9 19 12 5 9 10 9 11 10 9 9 8 8 10 12 13 13 11 9 7 7 9 10 10 10 11 12 13 14 14 13 13 13 12 11 11 12 12 11 12
2 -2 -2 8 16 13 11 14 13 9 10 13 13 12 10 5 3 2 2 3 2 1 3 4 5 7 7 8 9 9 9 9 7 8 10 10 10 12 13 15 16 12 10 17 16 8 7 9 4 4 10 10 8 10 8 7 8 9 9 11 13 14 13 10 8 7 8 9 10 10 10 11 12 14 14 13 12 12 12 11 12 12 12 11 12 13
-2 -3 4 13 11 3 5 11 9 6 9 9 8 8 6 6 9 10 8 7 6 7 9 9 10 10 8 7 8 8 8 9 9 10 11 11 12 13 13 13 12 10 9 11 12 11 9 7 7 11 11 9 8 8 7 8 9 9 10 12 13 13 12 9 8 8 8 10 11 10 10 12 13 14 13 12 12 12 11 12 12 11 11 11 12 13
-4 3 14 18 9 -1 0 7 8 7 7 5 4 4 4 6 9 8 6 6 6 7 9 10 11 12 10 8 10 11 12 12 12 13 13 13 14 14 13 12 8 7 10 13 13 11 10 10 11 11 8 7 7 7 9 11 10 10 12 14 13 13 12 10 9 9 9 11 11 10 11 13 14 13 12 11 11 11 11 11 12 11 10 12 12 12
7 14 17 19 15 3 -4 4 10 8 6 5 5 5 4 4 5 4 4 4 5 7 8 8 9 13 14 12 10 11 13 14 14 14 12 10 13 14 12 9 8 10 13 13 11 10 11 11 10 8 7 8 8 11 13 12 11 12 13 13 13 12 11 10 9 9 11 11 10 11 13 14 13 12 12 12 11 11 10 10 11 11 11 11 12 11
18 16 14 18 18 6 -1 8 15 12 10 9 8 8 7 7 7 8 8 9 9 9 7 5 10 19 23 17 11 11 15 16 12 10 8 8 11 13 12 12 12 12 12 11 10 11 10 8 8 8 9 11 13 14 13 11 11 12 12 12 13 12 11 10 9 9 11 11 11 12 13 13 12 12 12 11 10 10 10 10 10 11 10 11 11 9
15 12 12 16 14 7 4 8 10 10 12 12 10 10 11 11 12 12 11 11 11 11 9 8 13 21 23 18 15 15 15 13 11 9 8 9 12 13 13 14 13 11 11 10 10 10 8 8 10 12 13 14 14 12 11 11 12 12 12 12 12 12 11 10 9 10 12 12 12 12 12 12 12 12 11 10 10 10 10 10 11 10 10 10 10 9
19 20 19 15 11 8 7 6 6 8 9 8 7 7 7 10 13 15 15 14 13 13 13 14 17 20 20 18 15 12 9 8 10 10 9 10 13 13 12 11 11 10 10 10 9 9 10 11 12 13 13 12 11 11 12 12 12 13 13 12 12 12 11 9 9 11 13 12 12 12 12 12 12 12 11 10 9 10 10 10 11 11 10 9 9 8
17 19 14 8 6 6 6 7 10 12 10 8 6 5 5 9 12 13 13 12 12 14 14 15 16 17 16 13 9 6 7 10 11 10 10 11 12 11 10 10 11 10 10 10 9 10 11 12 12 12 12 12 13 13 13 12 13 13 12 11 11 11 10 9 11 12 12 12 12 12 12 12 12 12 11 10 10 10 11 11 11 11 10 10 9 9
Height
5926 5926 5927 5928 5930 5931 5931 5932 5931 5932 5933 5934 5934 5934 5934 5934 5933 5934 5934 5935 5934 5934 5934 5934 5934 5935 5935 5935 5935 5934 5933 5932 5930 5929 5927 5925 5924 5924 5923 5922 5922 5921 5920 5919 5918 5917 5916 5915 5914 5913 5913 5912 5912 5911 5910 5909 5908 5906 5905 5904 5902 5901 5899 5898 5897 5895 5894 5893 5892 5891 5890 5888 5887 5885 5884 5883 5883 5882 5881 5881 5880 5879 5877 5875 5874 5873
5925 5925 5927 5929 5929 5929 5929 5930 5930 5930 5931 5933 5933 5933 5933 5933 5933 5934 5934 5934 5934 5933 5933 5932 5933 5933 5934 5935 5934 5933 5933 5932 5930 5929 5927 5925 5924 5923 5923 5923 5922 5921 5921 5920 5919 5918 5917 5915 5914 5913 5913 5912 5911 5910 5909 5908 5907 5906 5904 5903 5902 5900 5899 5897 5895 5894 5893 5892 5890 5890 5889 5887 5886 5885 5883 5883 5882 5882 5881 5880 5879 5877 5876 5874 5873 5872
5924 5925 5927 5928 5928 5927 5927 5928 5928 5929 5930 5931 5932 5933 5933 5933 5933 5934 5934 5933 5932 5932 5932 5932 5932 5933 5933 5934 5934 5933 5932 5931 5930 5929 5927 5926 5924 5923 5923 5923 5922 5921 5920 5919 5918 5917 5917 5915 5914 5913 5912 5912 5911 5910 5909 5908 5907 5906 5904 5903 5901 5900 5899 5897 5895 5893 5892 5890 5889 5888 5888 5887 5886 5884 5883 5882 5882 5881 5880 5879 5877 5876 5874 5873 5872 5870
5923 5925 5926 5926 5925 5925 5925 5926 5926 5927 5928 5929 5930 5932 5933 5933 5933 5933 5933 5932 5932 5931 5932 5931 5931 5931 5933 5933 5933 5932 5931 5930 5930 5929 5927 5926 5924 5923 5923 5923 5923 5922 5920 5919 5918 5917 5916 5915 5914 5913 5912 5912 5911 5910 5909 5908 5907 5905 5904 5902 5900 5899 5899 5898 5896 5894 5892 5890 5889 5888 5887 5886 5885 5885 5883 5882 5881 5880 5879 5877 5876 5874 5872 5871 5870 5869
5921 5923 5923 5923 5923 5923 5923 5924 5925 5926 5926 5927 5929 5930 5932 5932 5932 5932 5931 5931 5930 5930 5931 5930 5930 5930 5931 5932 5932 5932 5931 5930 5929 5928 5927 5926 5924 5923 5923 5923 5923 5922 5920 5919 5917 5916 5915 5914 5913 5912 5912 5912 5911 5909 5908 5907 5906 5905 5903 5901 5899 5898 5898 5898 5897 5895 5894 5892 5889 5887 5886 5885 5885 5884 5882 5881 5880 5878 5877 5875 5873 5872 5870 5870 5869 5868
5920 5921 5921 5921 5921 5921 5922 5923 5924 5924 5924 5925 5927 5929 5930 5931 5931 5930 5930 5930 5929 5929 5930 5929 5928 5929 5930 5930 5931 5931 5930 5929 5929 5928 5927 5926 5924 5923 5923 5923 5922 5922 5920 5919 5917 5916 5914 5913 5912 5911 5911 5911 5910 5908 5907 5906 5905 5903 5902 5900 5898 5897 5897 5898 5896 5895 5895 5894 5890 5887 5885 5884 5883 5882 5881 5880 5879 5877 5875 5873 5872 5870 5869 5868 5868 5867
5918 5918 5919 5919 5919 5920 5921 5921 5922 5923 5923 5924 5927 5928 5928 5929 5929 5928 5928 5928 5927 5928 5928 5928 5927 5927 5928 5929 5929 5930 5929 5929 5928 5927 5926 5926 5925 5924 5923 5922 5922 5921 5920 5918 5917 5915 5914 5912 5911 5911 5911 5911 5909 5907 5906 5905 5903 5901 5900 5898 5897 5896 5896 5896 5895 5893 5893 5893 5890 5887 5884 5882 5881 5880 5880 5879 5877 5876 5874 5872 5870 5869 5868 5867 5867 5866
5916 5916 5917 5918 5918 5918 5919 5921 5922 5921 5921 5923 5926 5926 5926 5927 5927 5927 5927 5927 5926 5926 5926 5926 5925 5925 5926 5927 5928 5928 5928 5929 5928 5927 5926 5925 5925 5924 5923 5922 5921 5920 5919 5917 5916 5914 5913 5912 5911 5911 5911 5909 5908 5907 5905 5904 5901 5899 5897 5896 5895 5894 5893 5894 5893 5892 5891 5890 5889 5886 5883 5881 5880 5879 5878 5877 5876 5874 5872 5871 5869 5867 5867 5866 5866 5865
5913 5913 5915 5916 5916 5918 5919 5920 5920 5918 5919 5923 5924 5924 5924 5925 5925 5925 5925 5925 5925 5924 5924 5925 5924 5923 5923 5925 5926 5926 5926 5927 5927 5926 5925 5924 5924 5923 5922 5921 5920 5919 5918 5916 5915 5913 5912 5911 5911 5911 5910 5908 5907 5906 5905 5902 5899 5896 5895 5894 5892 5891 5890 5891 5890 5890 5889 5888 5886 5884 5882 5880 5879 5878 5877 5876 5874 5873 5871 5870 5868 5866 5866 5865 5864 5863
5911 5912 5912 5914 5915 5916 5917 5917 5916 5916 5917 5921 5922 5921 5922 5923 5924 5924 5923 5923 5923 5922 5922 5923 5923 5921 5922 5923 5924 5924 5925 5925 5925 5925 5924 5923 5923 5923 5922 5921 5919 5918 5916 5915 5914 5912 5911 5911 5910 5909 5908 5906 5906 5906 5903 5901 5898 5896 5894 5891 5889 5888 5888 5888 5887 5887 5886 5885 5884 5882 5881 5879 5878 5877 5876 5875 5873 5871 5870 5868 5867 5866 5865 5864 5863 5862
5908 5909 5910 5912 5913 5914 5914 5914 5914 5915 5916 5918 5919 5919 5920 5921 5922 5922 5921 5921 5920 5919 5921 5922 5921 5920 5919 5921 5922 5922 5923 5923 5923 5923 5922 5922 5921 5921 5921 5920 5918 5917 5915 5914 5912 5911 5911 5910 5909 5907 5906 5905 5906 5904 5901 5899 5897 5895 5891 5888 5886 5886 5886 5886 5885 5885 5884 5883 5881 5880 5879 5878 5877 5876 5875 5873 5871 5870 5869 5867 5866 5865 5864 5863 5862 5861
5904 5906 5908 5909 5910 5911 5911 5912 5913 5913 5914 5915 5917 5918 5919 5919 5920 5920 5919 5919 5917 5917 5919 5920 5919 5918 5917 5918 5920 5921 5921 5922 5921 5921 5921 5920 5920 5920 5919 5918 5917 5915 5913 5912 5911 5910 5910 5909 5907 5905 5904 5904 5904 5901 5898 5897 5895 5891 5888 5886 5885 5885 5885 5885 5885 5884 5882 5881 5880 5878 5878 5877 5876 5875 5874 5872 5870 5868 5867 5865 5865 5864 5863 5862 5861 5860
5901 5903 5905 5906 5907 5908 5909 5910 5910 5911 5912 5913 5915 5916 5917 5917 5917 5917 5917 5916 5915 5916 5917 5918 5917 5915 5914 5916 5918 5919 5920 5920 5920 5919 5919 5919 5918 5918 5917 5917 5915 5913 5912 5911 5910 5909 5908 5907 5905 5903 5902 5903 5900 5897 5896 5895 5891 5888 5888 5888 5887 5886 5886 5885 5884 5883 5881 5880 5879 5877 5876 5875 5874 5873 5872 5870 5868 5867 5865 5864 5863 5863 5862 5861 5859 5858
5899 5900 5902 5904 5905 5906 5907 5908 5909 5909 5910 5911 5913 5914 5915 5915 5915 5915 5915 5914 5914 5915 5915 5915 5914 5913 5913 5914 5916 5917 5918 5918 5918 5918 5918 5918 5917 5916 5915 5915 5913 5912 5910 5909 5909 5908 5906 5905 5903 5901 5901 5898 5895 5895 5895 5891 5888 5890 5891 5891 5889 5887 5886 5885 5884 5883 5881 5880 5878 5876 5875 5874 5873 5872 5870 5868 5866 5865 5864 5863 5862 5861 5860 5859 5858 5857
5897 5898 5899 5901 5903 5904 5905 5906 5906 5907 5908 5909 5910 5911 5912 5913 5913 5913 5913 5913 5913 5913 5912 5912 5912 5911 5911 5913 5914 5915 5916 5916 5916 5916 5916 5916 5915 5914 5914 5913 5912 5910 5909 5908 5907 5906 5905 5903 5901 5900 5898 5896 5896 5897 5895 5890 5890 5892 5892 5889 5887 5886 5884 5884 5883 5881 5880 5878 5876 5874 5873 5872 5871 5870 5868 5866 5865 5864 5862 5861 5861 5860 5859 5858 5857 5856
5895 5896 5897 5899 5901 5902 5903 5903 5904 5905 5906 5907 5908 5910 5911 5911 5911 5911 5912 5911 5912 5911 5909 5909 5909 5909 5910 5911 5912 5913 5914 5914 5914 5914 5914 5914 5913 5912 5912 5911 5910 5909 5908 5907 5906 5904 5903 5902 5900 5898 5896 5896 5897 5897 5894 5892 5891 5890 5889 5887 5885 5884 5883 5882 5881 5880 5878 5876 5874 5872 5871 5871 5869 5868 5866 5864 5863 5862 5861 5860 5859 5858 5858 5857 5856 5854
5893 5893 5895 5897 5899 5900 5900 5901 5902 5904 5905 5906 5907 5909 5909 5910 5910 5910 5910 5910 5909 5909 5908 5907 5908 5908 5908 5910 5911 5912 5913 5913 5912 5912 5913 5912 5911 5911 5910 5909 5908 5907 5907 5906 5905 5903 5902 5900 5898 5897 5895 5894 5895 5895 5894 5892 5890 5888 5887 5885 5883 5882 5881 5880 5879 5878 5876 5874 5872 5870 5869 5868 5867 5866 5864 5863 5862 5860 5859 5859 5858 5857 5856 5855 5854 5853
5891 5892 5894 5896 5897 5897 5899 5900 5901 5902 5903 5904 5906 5907 5908 5908 5908 5908 5908 5908 5908 5907 5907 5906 5907 5907 5908 5909 5911 5911 5912 5912 5911 5911 5911 5910 5909 5909 5908 5907 5907 5906 5905 5904 5903 5902 5900 5898 5896 5895 5894 5892 5893 5894 5892 5890 5888 5886 5885 5883 5882 5881 5879 5878 5877 5876 5875 5872 5870 5868 5866 5866 5865 5864 5863 5861 5860 5859 5858 5857 5857 5856 5855 5854 5853 5852
5889 5891 5893 5895 5895 5897 5898 5900 5901 5901 5902 5903 5905 5905 5905 5906 5906 5906 5906 5906 5907 5906 5906 5906 5906 5907 5907 5909 5910 5910 5910 5910 5910 5909 5909 5908 5907 5907 5906 5905 5905 5904 5904 5903 5902 5900 5898 5897 5895 5893 5892 5891 5891 5891 5889 5887 5886 5884 5883 5881 5880 5879 5878 5877 5876 5875 5873 5870 5868 5866 5864 5864 5863 5862 5861 5860 5858 5857 5857 5856 5855 5855 5854 5853 5851 5850
5889 5891 5892 5893 5895 5896 5898 5899 5900 5901 5901 5902 5903 5903 5904 5904 5905 5905 5905 5905 5905 5905 5905 5905 5905 5906 5907 5907 5908 5908 5908 5908 5907 5907 5907 5906 5905 5905 5904 5904 5903 5903 5902 5901 5900 5898 5897 5895 5893 5891 5890 5888 5887 5887 5887 5885 5883 5882 5881 5880 5878 5877 5876 5875 5874 5873 5870 5868 5866 5864 5863 5862 5861 5860 5859 5858 5857 5856 5855 5855 5854 5853 5852 5851 5850 5849
5888 5890 5892 5893 5894 5896 5896 5897 5898 5899 5900 5901 5902 5903 5903 5903 5904 5904 5904 5904 5904 5904 5904 5904 5904 5905 5906 5906 5906 5907 5906 5906 5905 5905 5905 5904 5904 5903 5903 5902 5902 5901 5900 5899 5898 5896 5895 5893 5891 5889 5887 5884 5883 5885 5884 5882 5881 5880 5879 5878 5876 5875 5873 5872 5871 5870 5868 5866 5865 5863 5862 5861 5860 5859 5857 5856 5855 5855 5854 5854 5853 5852 5851 5850 5849 5847
5888 5890 5891 5892 5893 5894 5895 5896 5897 5898 5899 5900 5901 5901 5902 5902 5903 5903 5903 5903 5903 5903 5903 5903 5903 5904 5904 5904 5905 5905 5905 5904 5904 5904 5903 5902 5902 5902 5901 5900 5900 5899 5898 5897 5896 5894 5892 5891 5889 5887 5884 5881 5880 5882 5882 5880 5879 5878 5876 5875 5874 5873 5871 5870 5868 5867 5865 5864 5863 5861 5860 5859 5858 5857 5856 5855 5854 5853 5853 5852 5851 5850 5849 5848 5847 5846
5888 5889 5890 5891 5892 5893 5894 5895 5896 5897 5898 5899 5900 5900 5900 5901 5901 5901 5902 5902 5902 5902 5902 5901 5902 5903 5904 5904 5904 5904 5904 5903 5903 5902 5902 5901 5900 5900 5899 5898 5898 5897 5896 5895 5893 5892 5890 5889 5887 5884 5883 5880 5878 5879 5880 5878 5877 5875 5873 5872 5871 5870 5869 5867 5866 5865 5863 5862 5861 5860 5859 5858 5857 5855 5854 5853 5852 5852 5851 5851 5850 5849 5848 5847 5846 5845
5886 5888 5889 5890 5891 5892 5893 5894 5895 5896 5897 5898 5899 5899 5899 5900 5900 5901 5901 5901 5901 5901 5900 5900 5901 5902 5902 5902 5903 5903 5902 5902 5901 5900 5900 5899 5898 5898 5897 5896 5895 5894 5894 5892 5891 5890 5888 5886 5885 5883 5881 5879 5877 5876 5874 5873 5872 5872 5870 5869 5868 5868 5867 5865 5864 5863 5862 5860 5859 5858 5857 5856 5855 5854 5852 5852 5851 5850 5850 5849 5848 5847 5846 5845 5844 5843
5886 5888 5889 5890 5891 5891 5892 5893 5894 5895 5895 5896 5897 5898 5898 5899 5899 5899 5899 5900 5900 5899 5899 5899 5899 5900 5900 5901 5901 5901 5900 5900 5899 5898 5897 5897 5896 5895 5894 5893 5893 5892 5891 5890 5889 5888 5886 5885 5883 5881 5879 5878 5877 5875 5872 5870 5869 5869 5868 5868 5867 5866 5865 5864 5863 5861 5860 5859 5857 5856 5855 5854 5853 5852 5851 5850 5849 5849 5848 5847 5846 5845 5844 5843 5842 5841
5886 5887 5888 5889 5890 5890 5891 5892 5893 5893 5894 5895 5896 5896 5897 5898 5898 5898 5898 5899 5898 5898 5898 5898 5898 5898 5898 5899 5899 5898 5898 5897 5897 5896 5895 5894 5894 5893 5892 5891 5890 5889 5888 5888 5887 5886 5884 5883 5881 5880 5878 5876 5875 5874 5871 5869 5867 5866 5866 5866 5866 5865 5863 5862 5861 5860 5858 5857 5855 5854 5853 5852 5851 5850 5849 5848 5847 5847 5846 5845 5844 5843 5843 5842 5841 5840
5884 5886 5886 5887 5888 5889 5890 5891 5891 5892 5893 5894 5894 5895 5896 5897 5897 5897 5897 5897 5897 5896 5896 5896 5896 5896 5897 5897 5897 5896 5896 5895 5894 5893 5892 5891 5891 5890 5889 5888 5887 5886 5885 5885 5884 5883 5882 5881 5879 5878 5877 5875 5874 5872 5870 5868 5866 5865 5865 5864 5864 5863 5861 5859 5858 5857 5856 5855 5853 5852 5851 5850 5849 5848 5847 5846 5846 5845 5844 5844 5843 5842 5841 5840 5839 5838
5883 5884 5885 5886 5887 5888 5889 5889 5890 5890 5891 5892 5892 5893 5894 5895 5895 5895 5895 5895 5895 5895 5895 5895 5895 5895 5895 5895 5894 5894 5893 5893 5892 5891 5890 5889 5888 5887 5886 5885 5884 5883 5882 5881 5881 5880 5879 5878 5877 5876 5875 5873 5872 5870 5869 5867 5865 5864 5863 5863 5862 5860 5858 5857 5856 5855 5854 5853 5851 5850 5849 5848 5847 5846 5845 5844 5844 5843 5842 5842 5841 5840 5839 5838 5837 5836
5882 5883 5884 5884 5885 5886 5887 5887 5888 5888 5889 5890 5890 5891 5892 5892 5893 5893 5893 5893 5893 5893 5894 5893 5893 5893 5893 5892 5892 5891 5891 5890 5889 5888 5887 5886 5885 5883 5882 5882 5881 5880 5879 5878 5877 5877 5876 5876 5875 5874 5873 5872 5870 5869 5867 5865 5863 5862 5862 5861 5859 5858 5856 5855 5854 5852 5851 5850 5849 5848 5848 5847 5846 5845 5843 5842 5842 5841 5841 5840 5839 5838 5837 5836 5835 5834
5881 5882 5882 5883 5884 5884 5885 5885 5886 5886 5887 5887 5888 5889 5889 5890 5891 5891 5891 5891 5891 5891 5891 5891 5891 5891 5890 5890 5889 5889 5888 5887 5886 5885 5884 5882 5881 5880 5879 5878 5877 5876 5876 5875 5875 5874 5873 5873 5872 5871 5870 5869 5868 5866 5864 5863 5861 5860 5859 5858 5857 5855 5854 5853 5851 5850 5848 5847 5847 5846 5845 5844 5844 5843 5841 5840 5840 5839 5839 5838 5837 5836 5835 5834 5833 5832
5879 5881 5881 5881 5883 5883 5883 5883 5884 5884 5885 5885 5886 5887 5887 5888 5888 5889 5889 5889 5889 5889 5889 5889 5889 5889 5888 5888 5887 5886 5886 5885 5883 5882 5880 5879 5877 5876 5875 5874 5874 5873 5873 5872 5872 5871 5871 5870 5870 5869 5868 5867 5865 5863 5862 5860 5859 5858 5856 5855 5855 5853 5852 5850 5849 5847 5846 5845 5844 5844 5843 5842 5841 5840 5839 5839 5838 5837 5836 5836 5835 5834 5833 5832 5831 5830
5878 5879 5879 5880 5881 5881 5881 5882 5882 5882 5883 5883 5884 5885 5886 5886 5887 5886 5886 5886 5887 5887 5887 5886 5886 5886 5885 5885 5884 5884 5883 5882 5880 5878 5877 5875 5874 5873 5871 5871 5870 5870 5870 5869 5869 5868 5868 5867 5867 5866 5865 5864 5862 5860 5859 5858 5857 5855 5854 5853 5852 5851 5849 5848 5846 5845 5843 5843 5842 5842 5841 5840 5839 5838 5837 5836 5836 5835 5834 5833 5833 5832 5831 5830 5829 5827
5876 5878 5878 5879 5880 5880 5880 5880 5881 5881 5881 5881 5882 5883 5884 5884 5884 5884 5884 5884 5884 5884 5884 5884 5883 5883 5883 5882 5881 5881 5880 5879 5877 5875 5874 5873 5871 5869 5868 5868 5867 5867 5866 5866 5865 5865 5865 5864 5864 5863 5862 5861 5859 5857 5856 5856 5855 5853 5852 5850 5849 5848 5847 5845 5844 5843 5842 5841 5840 5840 5839 5838 5837 5836 5835 5834 5833 5833 5832 5831 5831 5830 5829 5828 5826 5825
5875 5876 5877 5877 5878 5878 5879 5879 5879 5879 5879 5880 5880 5881 5881 5882 5882 5882 5882 5882 5881 5881 5881 5880 5880 5880 5880 5879 5878 5878 5877 5876 5874 5873 5871 5870 5868 5867 5866 5865 5864 5864 5863 5862 5862 5861 5861 5861 5861 5860 5858 5857 5855 5854 5854 5853 5852 5851 5849 5848 5847 5846 5845 5843 5842 5841 5840 5839 5838 5838 5837 5836 5835 5834 5833 5832 5831 5831 5830 5829 5828 5828 5827 5826 5824 5823
5873 5874 5875 5876 5876 5877 5877 5877 5877 5877 5878 5878 5878 5879 5879 5879 5880 5880 5879 5879 5879 5878 5878 5878 5878 5877 5877 5876 5876 5875 5874 5872 5871 5870 5869 5867 5866 5865 5864 5863 5862 5861 5860 5859 5858 5857 5857 5857 5857 5856 5855 5853 5852 5852 5851 5850 5849 5848 5847 5846 5845 5844 5843 5842 5840 5839 5838 5837 5836 5835 5835 5834 5833 5832 5831 5830 5829 5828 5828 5827 5826 5826 5825 5823 5822 5821
5872 5873 5874 5874 5875 5875 5875 5875 5875 5876 5876 5877 5877 5877 5877 5877 5877 5877 5877 5876 5876 5876 5875 5875 5875 5875 5874 5874 5873 5872 5871 5870 5869 5867 5866 5865 5864 5863 5862 5860 5859 5857 5856 5855 5854 5854 5853 5853 5853 5852 5851 5851 5850 5849 5848 5848 5847 5846 5845 5844 5843 5842 5841 5840 5838 5837 5836 5835 5834 5833 5833 5832 5831 5830 5829 5828 5827 5826 5826 5825 5824 5823 5822 5821 5820 5819
5870 5872 5872 5873 5873 5874 5874 5874 5874 5874 5874 5875 5875 5875 5875 5875 5874 5874 5874 5874 5874 5873 5873 5873 5873 5872 5872 5871 5871 5869 5869 5868 5866 5865 5864 5863 5862 5861 5859 5858 5856 5854 5852 5851 5850 5849 5849 5848 5848 5848 5848 5848 5848 5847 5846 5845 5845 5844 5843 5842 5841 5840 5838 5838 5836 5835 5834 5833 5832 5832 5831 5830 5829 5828 5827 5826 5825 5824 5824 5823 5822 5821 5820 5819 5818 5816
5869 5870 5871 5871 5872 5872 5872 5872 5872 5872 5873 5873 5873 5873 5873 5873 5872 5872 5872 5872 5871 5871 5871 5870 5870 5870 5869 5869 5868 5867 5867 5866 5864 5863 5862 5861 5860 5859 5857 5855 5852 5849 5847 5846 5845 5845 5844 5843 5842 5843 5844 5844 5845 5845 5844 5843 5842 5842 5841 5840 5839 5838 5836 5835 5834 5833 5832 5832 5831 5831 5830 5829 5828 5827 5826 5824 5823 5822 5822 5821 5820 5819 5818 5817 5816 5814
5868 5869 5869 5870 5871 5871 5871 5871 5871 5871 5871 5871 5871 5872 5871 5871 5870 5870 5870 5870 5869 5869 5869 5868 5868 5867 5867 5866 5866 5865 5865 5863 5862 5861 5860 5859 5858 5856 5854 5852 5849 5846 5844 5845 5844 5843 5841 5840 5840 5840 5841 5841 5842 5842 5841 5840 5840 5839 5839 5838 5837 5837 5835 5834 5833 5832 5831 5830 5830 5829 5828 5827 5826 5825 5824 5823 5822 5821 5820 5819 5818 5817 5816 5815 5813 5812
5866 5867 5868 5869 5869 5869 5869 5869 5869 5869 5869 5869 5870 5870 5870 5869 5868 5868 5868 5868 5867 5866 5866 5866 5865 5865 5865 5864 5863 5863 5862 5861 5860 5859 5857 5856 5855 5853 5851 5848 5845 5843 5842 5842 5842 5840 5839 5839 5839 5839 5839 5839 5840 5839 5838 5838 5837 5837 5836 5836 5835 5835 5834 5833 5831 5830 5829 5829 5828 5827 5826 5825 5824 5823 5822 5821 5820 5819 5818 5817 5816 5815 5814 5813 5811 5810
5864 5865 5866 5867 5868 5868 5867 5867 5867 5867 5867 5868 5868 5868 5868 5867 5866 5866 5866 5865 5864 5864 5863 5863 5863 5863 5863 5862 5861 5860 5860 5859 5858 5856 5855 5854 5852 5850 5847 5844 5842 5840 5840 5840 5840 5838 5838 5839 5839 5838 5838 5838 5838 5838 5837 5836 5835 5835 5834 5833 5833 5833 5832 5831 5829 5828 5828 5827 5826 5825 5825 5823 5822 5821 5820 5819 5818 5817 5816 5815 5814 5813 5812 5811 5810 5808
5862 5863 5865 5866 5866 5866 5865 5864 5865 5865 5865 5866 5866 5866 5865 5865 5864 5864 5863 5862 5862 5862 5862 5861 5861 5861 5861 5860 5859 5858 5857 5856 5856 5854 5853 5851 5849 5846 5843 5841 5841 5841 5840 5840 5839 5838 5838 5839 5839 5838 5837 5837 5837 5836 5835 5834 5834 5833 5832 5831 5831 5830 5829 5828 5827 5827 5826 5825 5824 5824 5823 5822 5821 5820 5819 5818 5817 5816 5815 5814 5813 5811 5810 5809 5808 5807
5860 5862 5863 5864 5864 5863 5863 5863 5863 5863 5863 5864 5864 5863 5863 5862 5862 5861 5861 5860 5860 5860 5860 5859 5859 5859 5858 5857 5856 5855 5854 5854 5853 5852 5851 5849 5846 5843 5841 5841 5842 5842 5840 5838 5838 5838 5838 5838 5838 5836 5835 5835 5834 5834 5833 5832 5831 5830 5830 5829 5829 5828 5827 5826 5826 5825 5824 5824 5823 5822 5821 5820 5819 5818 5817 5816 5815 5814 5813 5812 5811 5810 5809 5808 5807 5805
5858 5860 5861 5862 5862 5862 5861 5861 5861 5861 5861 5861 5861 5861 5860 5860 5859 5859 5859 5858 5858 5857 5857 5856 5856 5856 5855 5854 5853 5853 5852 5851 5851 5850 5849 5847 5844 5842 5840 5840 5841 5840 5839 5838 5837 5836 5837 5836 5835 5834 5833 5832 5832 5831 5830 5829 5829 5828 5828 5828 5827 5827 5826 5825 5824 5824 5823 5822 5821 5820 5819 5818 5817 5817 5816 5814 5813 5812 5811 5810 5809 5808 5807 5806 5805 5804
5856 5858 5859 5860 5860 5860 5860 5859 5859 5859 5859 5858 5858 5858 5858 5857 5857 5856 5856 5856 5855 5854 5854 5853 5853 5852 5852 5851 5850 5850 5850 5849 5848 5848 5847 5845 5843 5841 5839 5838 5838 5839 5838 5837 5836 5835 5835 5834 5833 5832 5831 5830 5830 5829 5828 5828 5827 5827 5827 5826 5826 5825 5824 5823 5823 5822 5821 5820 5819 5818 5817 5817 5816 5815 5814 5813 5812 5811 5810 5809 5808 5807 5806 5805 5804 5803
5855 5856 5857 5858 5858 5858 5857 5857 5857 5856 5856 5856 5856 5855 5855 5854 5854 5854 5853 5853 5852 5852 5851 5850 5850 5849 5848 5848 5848 5847 5847 5846 5846 5845 5845 5844 5843 5841 5838 5837 5836 5837 5836 5836 5835 5834 5833 5832 5831 5830 5830 5829 5828 5828 5827 5827 5826 5826 5826 5825 5824 5823 5823 5822 5821 5820 5819 5818 5818 5817 5816 5815 5814 5813 5812 5811 5810 5809 5808 5807 5807 5806 5805 5804 5803 5802
5853 5854 5854 5855 5855 5855 5855 5855 5854 5853 5853 5853 5853 5852 5852 5851 5851 5851 5851 5850 5849 5849 5848 5847 5846 5845 5845 5845 5845 5845 5844 5844 5843 5843 5843 5842 5841 5840 5838 5836 5835 5834 5834 5834 5833 5832 5831 5830 5830 5829 5828 5828 5827 5826 5826 5825 5825 5825 5824 5823 5823 5822 5821 5820 5819 5818 5818 5817 5816 5815 5814 5813 5812 5811 5810 5810 5809 5808 5807 5806 5805 5804 5803 5802 5801 5800
5850 5851 5851 5851 5852 5852 5852 5852 5851 5850 5850 5850 5849 5849 5849 5849 5849 5849 5848 5847 5847 5846 5845 5844 5843 5842 5841 5841 5842 5842 5842 5841 5841 5841 5841 5841 5840 5839 5837 5835 5834 5833 5832 5832 5831 5830 5830 5829 5829 5828 5828 5827 5826 5825 5824 5824 5824 5823 5822 5822 5821 5820 5819 5818 5818 5817 5816 5815 5814 5813 5812 5812 5811 5810 5809 5808 5807 5806 5805 5804 5804 5803 5802 5801 5800 5799
5847 5848 5848 5848 5848 5849 5849 5848 5848 5848 5848 5847 5846 5846 5846 5846 5846 5845 5845 5844 5844 5843 5842 5841 5840 5839 5838 5839 5839 5839 5839 5839 5839 5839 5839 5839 5838 5837 5835 5834 5833 5832 5831 5831 5830 5829 5829 5829 5828 5828 5827 5826 5825 5824 5823 5823 5823 5822 5821 5820 5819 5819 5818 5817 5816 5815 5814 5813 5812 5812 5811 5810 5809 5808 5807 5806 5805 5804 5804 5803 5802 5801 5800 5799 5798 5797
5844 5844 5844 5845 5845 5845 5845 5845 5845 5845 5844 5844 5844 5843 5843 5843 5843 5842 5842 5841 5841 5840 5839 5838 5837 5837 5836 5837 5837 5837 5837 5837 5837 5837 5837 5837 5836 5835 5834 5833 5832 5831 5831 5830 5830 5829 5829 5828 5828 5827 5826 5824 5824 5823 5822 5822 5821 5820 5820 5819 5818 5817 5817 5816 5815 5814 5813 5812 5811 5810 5809 5809 5808 5807 5806 5805 5804 5803 5802 5801 5800 5799 5799 5798 5797 5796
5841 5841 5841 5842 5842 5842 5842 5842 5842 5842 5841 5841 5841 5841 5841 5841 5840 5840 5839 5838 5837 5837 5836 5836 5835 5835 5834 5835 5835 5835 5835 5835 5836 5836 5836 5835 5834 5833 5832 5831 5831 5830 5830 5830 5829 5829 5828 5827 5826 5825 5824 5823 5822 5822 5821 5821 5820 5819 5818 5817 5817 5816 5815 5814 5813 5812 5811 5810 5809 5809 5808 5807 5806 5805 5804 5803 5802 5801 5800 5799 5798 5798 5797 5796 5795 5794